| time (UTC) | temp F | wind direction | speed knots | gust knots | rain 1hr in | rain 24hr in | rain mn in | humidity % | barometer mb |
| 20260902023038 | 69 | 189 | 2.6 | 6.1 | 0.00 | 0.00 | 0.00 | 78 | 1013.0 |
| 20260902021546 | 69 | 205 | 1.7 | 8.7 | 0.00 | 0.00 | 0.00 | 76 | 1013.1 |
| 20260902020033 | 70 | 140 | 3.5 | 9.6 | 0.00 | 0.00 | 0.00 | 75 | 1013.1 |
| 20260902014539 | 70 | 209 | 3.5 | 8.7 | 0.00 | 0.00 | 0.00 | 74 | 1013.0 |
| 20260902013032 | 70 | 198 | 4.3 | 13.0 | 0.00 | 0.00 | 0.00 | 74 | 1013.1 |
| 20260902011531 | 71 | 222 | 4.3 | 11.3 | 0.00 | 0.00 | 0.00 | 74 | 1013.1 |
| 20260902010032 | 71 | 187 | 4.3 | 10.4 | 0.00 | 0.00 | 0.00 | 74 | 1013.1 |
| 20260902004530 | 71 | 176 | 4.3 | 10.4 | 0.00 | 0.00 | 0.00 | 74 | 1013.1 |
| 20260902003031 | 72 | 180 | 4.3 | 9.6 | 0.00 | 0.00 | 0.00 | 73 | 1013.3 |
| 20260902001527 | 72 | 194 | 3.5 | 8.7 | 0.00 | 0.00 | 0.00 | 71 | 1013.3 |
| 20260902000023 | 72 | 204 | 5.2 | 9.6 | 0.00 | 0.00 | 0.00 | 69 | 1013.4 |
| 20260901234522 | 72 | 198 | 4.3 | 8.7 | 0.00 | 0.00 | 0.00 | 68 | 1013.5 |
| 20260901233020 | 72 | 211 | 5.2 | 8.7 | 0.00 | 0.00 | 0.00 | 69 | 1013.7 |
| 20260901231521 | 72 | 157 | 6.1 | 12.2 | 0.00 | 0.00 | 0.00 | 71 | 1013.9 |
| 20260901230018 | 72 | 184 | 5.2 | 13.9 | 0.00 | 0.00 | 0.00 | 71 | 1014.0 |
| 20260901224521 | 72 | 214 | 7.8 | 13.0 | 0.00 | 0.00 | 0.00 | 71 | 1014.2 |
| 20260901223014 | 72 | 176 | 5.2 | 10.4 | 0.00 | 0.00 | 0.00 | 72 | 1014.2 |
| 20260901221513 | 72 | 202 | 5.2 | 10.4 | 0.00 | 0.00 | 0.00 | 73 | 1014.4 |
| 20260901220017 | 73 | 212 | 6.1 | 13.0 | 0.00 | 0.00 | 0.00 | 72 | 1014.5 |
| 20260901214510 | 73 | 216 | 6.1 | 11.3 | 0.00 | 0.00 | 0.00 | 70 | 1014.7 |
| 20260901213010 | 73 | 204 | 6.1 | 11.3 | 0.00 | 0.00 | 0.00 | 70 | 1014.7 |
| 20260901211508 | 72 | 163 | 5.2 | 10.4 | 0.00 | 0.00 | 0.00 | 69 | 1014.8 |
| 20260901210011 | 72 | 173 | 5.2 | 11.3 | 0.00 | 0.00 | 0.00 | 69 | 1014.9 |
| 20260901204506 | 73 | 183 | 6.1 | 9.6 | 0.00 | 0.00 | 0.00 | 69 | 1014.9 |
| 20260901203007 | 73 | 177 | 2.6 | 7.8 | 0.00 | 0.00 | 0.00 | 69 | 1015.0 |
| 20260901201504 | 73 | 178 | 3.5 | 9.6 | 0.00 | 0.00 | 0.00 | 69 | 1015.1 |
| 20260901200003 | 73 | 172 | 3.5 | 7.8 | 0.00 | 0.00 | 0.00 | 69 | 1015.3 |
| 20260901194504 | 72 | 146 | 3.5 | 7.8 | 0.00 | 0.00 | 0.00 | 69 | 1015.5 |
| 20260901193126 | 72 | 186 | 4.3 | 9.6 | 0.00 | 0.00 | 0.00 | 70 | 1015.6 |
| 20260901191600 | 72 | 184 | 5.2 | 8.7 | 0.00 | 0.00 | 0.00 | 69 | 1015.7 |
| 20260901190110 | 72 | 191 | 2.6 | 7.8 | 0.00 | 0.00 | 0.00 | 70 | 1015.7 |
| 20260901190002 | 72 | 222 | 2.6 | 7.8 | 0.00 | 0.00 | 0.00 | 69 | 1015.7 |
| 20260901184559 | 72 | 154 | 4.3 | 8.7 | 0.00 | 0.00 | 0.00 | 70 | 1015.7 |
| 20260901183057 | 72 | 172 | 5.2 | 8.7 | 0.00 | 0.00 | 0.00 | 70 | 1015.8 |
| 20260901181602 | 72 | 157 | 3.5 | 8.7 | 0.00 | 0.00 | 0.00 | 71 | 1015.7 |
| 20260901180058 | 72 | 169 | 3.5 | 7.0 | 0.00 | 0.00 | 0.00 | 70 | 1015.6 |
| 20260901174554 | 72 | 190 | 1.7 | 7.0 | 0.00 | 0.00 | 0.00 | 71 | 1015.5 |
| 20260901173051 | 72 | 143 | 3.5 | 7.8 | 0.00 | 0.00 | 0.00 | 72 | 1015.4 |
| 20260901171605 | 71 | 250 | 0.9 | 6.1 | 0.00 | 0.00 | 0.00 | 73 | 1015.3 |
| 20260901170049 | 70 | 119 | 1.7 | 6.1 | 0.00 | 0.00 | 0.00 | 75 | 1015.3 |
| 20260901164545 | 69 | 131 | 1.7 | 6.1 | 0.00 | 0.00 | 0.00 | 78 | 1015.3 |
| 20260901163039 | 67 | 121 | 1.7 | 4.3 | 0.00 | 0.00 | 0.00 | 81 | 1015.2 |
| 20260901161539 | 66 | 261 | 0.9 | 5.2 | 0.00 | 0.00 | 0.00 | 84 | 1015.3 |
| 20260901160035 | 65 | 269 | 1.7 | 3.5 | 0.00 | 0.00 | 0.00 | 87 | 1015.3 |
| 20260901154528 | 64 | 130 | 0.0 | 2.6 | 0.00 | 0.00 | 0.00 | 89 | 1015.3 |
| 20260901153026 | 63 | 334 | 0.0 | 4.3 | 0.00 | 0.00 | 0.00 | 90 | 1015.2 |
| 20260901151522 | 63 | 49 | 1.7 | 4.3 | 0.00 | 0.00 | 0.00 | 91 | 1015.0 |
| 20260901150019 | 62 | 49 | 1.7 | 3.5 | 0.00 | 0.00 | 0.00 | 92 | 1014.9 |
| 20260901144516 | 61 | 360 | 0.9 | 2.6 | 0.00 | 0.00 | 0.00 | 93 | 1014.7 |
| 20260901143016 | 59 | 5 | 0.0 | 0.0 | 0.00 | 0.00 | 0.00 | 92 | 1014.7 |
| 20260901141530 | 59 | 5 | 0.0 | 0.0 | 0.00 | 0.00 | 0.00 | 92 | 1014.6 |
| 20260901140012 | 59 | 5 | 0.0 | 0.0 | 0.00 | 0.00 | 0.00 | 91 | 1014.5 |
| 20260901134512 | 58 | 5 | 0.0 | 0.0 | 0.00 | 0.00 | 0.00 | 91 | 1014.4 |
| 20260901133009 | 58 | 5 | 0.0 | 0.0 | 0.00 | 0.00 | 0.00 | 91 | 1014.2 |
| 20260901131508 | 59 | 5 | 0.0 | 0.0 | 0.00 | 0.00 | 0.00 | 91 | 1014.0 |
| 20260901130006 | 59 | 5 | 0.0 | 0.0 | 0.00 | 0.00 | 0.00 | 90 | 1013.9 |
| 20260901124506 | 59 | 5 | 0.0 | 0.0 | 0.00 | 0.00 | 0.00 | 90 | 1013.8 |
| 20260901123007 | 59 | 18 | 0.0 | 0.0 | 0.00 | 0.00 | 0.00 | 90 | 1013.8 |
| 20260901121502 | 60 | 32 | 0.0 | 0.0 | 0.00 | 0.00 | 0.00 | 90 | 1013.9 |
| 20260901120003 | 60 | 355 | 0.0 | 0.0 | 0.00 | 0.00 | 0.00 | 90 | 1013.9 |
| 20260901114602 | 60 | 333 | 0.0 | 0.0 | 0.00 | 0.00 | 0.00 | 90 | 1013.9 |
| 20260901113100 | 61 | 241 | 0.0 | 0.0 | 0.00 | 0.00 | 0.00 | 90 | 1013.9 |
| 20260901111559 | 61 | 241 | 0.0 | 0.0 | 0.00 | 0.00 | 0.00 | 90 | 1013.8 |
| 20260901110058 | 61 | 241 | 0.0 | 0.0 | 0.00 | 0.00 | 0.00 | 91 | 1014.0 |
| 20260901104557 | 61 | 241 | 0.0 | 0.0 | 0.00 | 0.00 | 0.00 | 91 | 1014.1 |
| 20260901103104 | 61 | 246 | 0.0 | 0.0 | 0.00 | 0.00 | 0.00 | 90 | 1013.9 |
| 20260901101555 | 60 | 329 | 0.0 | 0.0 | 0.00 | 0.00 | 0.00 | 90 | 1013.9 |
| 20260901100056 | 60 | 329 | 0.0 | 0.0 | 0.00 | 0.00 | 0.00 | 90 | 1013.9 |
| 20260901094553 | 60 | 355 | 0.0 | 0.0 | 0.00 | 0.00 | 0.00 | 90 | 1013.6 |
| 20260901093052 | 60 | 360 | 0.0 | 0.0 | 0.00 | 0.00 | 0.00 | 90 | 1013.7 |
| 20260901091555 | 60 | 360 | 0.0 | 0.0 | 0.00 | 0.00 | 0.00 | 89 | 1013.8 |
| 20260901090049 | 60 | 360 | 0.0 | 0.0 | 0.00 | 0.00 | 0.00 | 89 | 1013.9 |
| 20260901084548 | 60 | 341 | 0.0 | 0.0 | 0.00 | 0.00 | 0.00 | 89 | 1014.1 |
| 20260901083047 | 60 | 341 | 0.0 | 0.0 | 0.00 | 0.00 | 0.00 | 88 | 1014.2 |
| 20260901081547 | 60 | 341 | 0.0 | 0.0 | 0.00 | 0.00 | 0.00 | 88 | 1013.9 |
| 20260901080047 | 60 | 341 | 0.0 | 0.0 | 0.00 | 0.00 | 0.00 | 88 | 1014.0 |
| 20260901074550 | 61 | 341 | 0.0 | 0.0 | 0.00 | 0.00 | 0.00 | 87 | 1013.9 |
| 20260901073040 | 61 | 341 | 0.0 | 0.0 | 0.00 | 0.00 | 0.00 | 87 | 1014.0 |
| 20260901071538 | 61 | 341 | 0.0 | 0.0 | 0.00 | 0.00 | 0.00 | 87 | 1013.9 |
| 20260901070038 | 62 | 341 | 0.0 | 0.0 | 0.00 | 0.00 | 0.00 | 87 | 1014.0 |
| 20260901064539 | 62 | 333 | 0.0 | 0.0 | 0.00 | 0.00 | 0.00 | 87 | 1013.6 |
| 20260901063041 | 62 | 360 | 0.0 | 0.9 | 0.00 | 0.00 | 0.00 | 87 | 1013.6 |
| 20260901061535 | 62 | 360 | 0.0 | 1.7 | 0.00 | 0.00 | 0.00 | 86 | 1013.6 |
| 20260901060033 | 62 | 355 | 0.0 | 1.7 | 0.00 | 0.00 | 0.00 | 86 | 1013.5 |
| 20260901054536 | 62 | 355 | 0.0 | 0.9 | 0.00 | 0.00 | 0.00 | 86 | 1013.4 |
| 20260901053034 | 62 | 306 | 0.0 | 1.7 | 0.00 | 0.00 | 0.00 | 85 | 1013.5 |
| 20260901051535 | 63 | 320 | 0.0 | 1.7 | 0.00 | 0.00 | 0.00 | 85 | 1013.3 |
| 20260901050032 | 63 | 5 | 0.0 | 1.7 | 0.00 | 0.00 | 0.00 | 85 | 1013.1 |
| 20260901044532 | 64 | 5 | 0.0 | 0.9 | 0.00 | 0.00 | 0.00 | 85 | 1013.0 |
| 20260901043031 | 64 | 242 | 0.0 | 2.6 | 0.00 | 0.00 | 0.00 | 86 | 1013.0 |
| 20260901041534 | 64 | 250 | 0.0 | 2.6 | 0.00 | 0.00 | 0.00 | 85 | 1013.0 |
| 20260901040030 | 65 | 195 | 3.5 | 7.8 | 0.00 | 0.00 | 0.00 | 85 | 1012.9 |
| 20260901034531 | 65 | 192 | 3.5 | 8.7 | 0.00 | 0.00 | 0.00 | 85 | 1012.7 |
| 20260901033028 | 65 | 205 | 2.6 | 7.0 | 0.00 | 0.00 | 0.00 | 85 | 1012.6 |
| 20260901031531 | 65 | 142 | 2.6 | 7.0 | 0.00 | 0.00 | 0.00 | 84 | 1012.3 |
| 20260901030027 | 65 | 171 | 2.6 | 7.8 | 0.00 | 0.00 | 0.00 | 83 | 1012.2 |
| 20260901024528 | 66 | 193 | 2.6 | 8.7 | 0.00 | 0.00 | 0.00 | 82 | 1012.2 |